[[{"header":{"parameterUnit":"m.s-1","parameterCategory":2,"la1":30.2991,"la2":30.254,"lo1":-89.0895,"lo2":-89.0444,"dy":0.0017,"dx":0.0017,"nx":28,"ny":28,"refTime":"2024-05-28T21:00:00:Z","depth":"0","parameterNumber":2,"parameterNumberName":"U-component_of_CURRENTS"},"data":[0,0,0,0,0,0,0,0,0,0,0,0,0,0,0,0,0,0,0,0,0,0,0,0,0,0,0,0,0,0,0,0,0,0,0,0,0,0,0,0,0,0,0,0,0,0,0,0,0,0,0,0,0,0,0,0,0,0,-0.3471,-0.3472,0,-0.358,-0.3581,-0.3582,-0.3491,-0.3488,-0.3484,-0.3481,-0.3532,-0.3537,-0.3542,0,0,0,0,0,0,0,0,0,0,0,0,0,-0.3246,-0.325,-0.3471,-0.3473,-0.3474,-0.358,-0.3581,-0.3582,-0.3492,-0.3488,-0.3483,-0.3479,-0.3531,-0.3536,-0.3542,0,0,0,0,0,0,0,0,0,0,0,0,0,-0.3346,-0.3252,-0.3471,-0.3443,-0.3442,-0.358,-0.3581,-0.3583,-0.3493,-0.3487,-0.3482,-0.3477,-0.3529,-0.3536,-0.3543,-0.3695,0,0,-0.3565,-0.3568,0,0,0,0,0,0,0,0,-0.3341,-0.3354,-0.3446,-0.3446,-0.3444,-0.3518,-0.3521,-0.3618,-0.3494,-0.3471,-0.3481,-0.3474,-0.3528,-0.3535,-0.3565,-0.3697,-0.3699,-0.3565,-0.357,-0.3573,-0.3575,0,0,0,0,0,0,0,-0.3334,-0.3349,-0.3512,-0.3448,-0.3447,-0.3447,-0.3454,-0.3539,-0.3526,-0.3473,-0.3467,-0.3485,-0.3526,-0.3558,-0.3565,-0.37,-0.3565,-0.3571,-0.3576,-0.3578,-0.3852,-0.3855,0,0,0,0,0,0,-0.3329,-0.3344,-0.3508,-0.3515,-0.3381,-0.3455,-0.3463,-0.3498,-0.3526,-0.3526,-0.3489,-0.348,-0.3549,-0.3557,-0.3567,-0.3672,-0.3573,-0.3579,-0.3583,-0.3849,-0.3853,-0.3856,0,0,0,0,0,0,-0.3324,-0.3343,-0.3504,-0.3432,-0.3452,-0.3465,-0.3505,-0.3503,-0.3513,-0.3539,-0.3536,-0.3496,-0.3545,-0.3557,-0.3633,-0.3675,-0.3582,-0.3589,-0.3846,-0.385,-0.3855,-0.3932,0,0,0,0,0,0,-0.3317,-0.3342,-0.3371,-0.3433,-0.3456,-0.3592,-0.351,-0.351,-0.3535,-0.3523,-0.3547,-0.3547,-0.3542,-0.3622,-0.364,-0.3683,-0.3594,-0.3842,-0.3848,-0.3853,-0.3925,-0.3938,-0.395,0,0,0,0,0,-0.3309,-0.3382,-0.3373,-0.3393,-0.3495,-0.3596,-0.3609,-0.3596,-0.354,-0.3577,-0.3576,-0.3545,-0.3668,-0.3632,-0.3652,-0.3698,-0.3839,-0.3846,-0.3853,-0.392,-0.3936,-0.3949,0,0,0,0,0,0,-0.3312,-0.3382,-0.3372,-0.3463,-0.3523,-0.358,-0.3623,-0.3609,-0.3644,-0.362,-0.3609,-0.3614,-0.3695,-0.3701,-0.366,-0.3793,-0.3742,-0.3753,-0.3786,-0.3801,-0.3813,-0.3807,-0.36,0,0,0,0,0,-0.3329,-0.3389,-0.3454,-0.3529,-0.356,-0.359,-0.3627,-0.3624,-0.3662,-0.3667,-0.3685,-0.3705,-0.3754,-0.3773,-0.3828,-0.3923,-0.3855,-0.3959,-0.3971,-0.3981,-0.3991,-0.3952,-0.396,-0.3879,-0.3879,-0.3878,0,0,-0.335,-0.3399,-0.3431,-0.3532,-0.3571,-0.3662,-0.3598,-0.367,-0.3729,-0.3678,-0.3762,-0.3769,-0.3793,-0.388,-0.3915,-0.3879,-0.3956,-0.3989,-0.3997,-0.4002,-0.396,-0.3967,-0.3973,-0.3883,-0.3882,-0.3882,0,0,-0.3437,-0.3469,-0.3546,-0.3611,-0.3686,-0.3718,-0.3737,-0.3803,-0.3806,-0.3903,-0.3864,-0.3892,-0.3986,-0.3995,-0.4012,-0.4137,-0.4032,-0.4146,-0.4196,-0.4159,-0.4164,-0.4168,-0.4024,-0.4014,-0.4139,-0.4139,-0.4139,0,-0.3452,-0.3555,-0.3588,-0.3689,-0.3734,-0.3744,-0.383,-0.3885,-0.3961,-0.3956,-0.3935,-0.4011,-0.4043,-0.41,-0.4141,-0.4164,-0.408,-0.4132,-0.4169,-0.4173,-0.4175,-0.4027,-0.4016,-0.4143,-0.4143,-0.4142,-0.4142,0,-0.3605,-0.3678,-0.3737,-0.385,-0.3916,-0.3996,-0.4061,-0.4105,-0.4095,-0.4111,-0.4154,-0.4185,-0.4196,-0.4227,-0.4235,-0.4273,-0.4182,-0.4193,-0.412,-0.4187,-0.4027,-0.4013,-0.415,-0.4148,-0.4147,-0.4146,0,0,-0.3625,-0.38,-0.3814,-0.3845,-0.3988,-0.4034,-0.4152,-0.4212,-0.42,-0.4279,-0.4254,-0.4375,-0.432,-0.4338,-0.4328,-0.432,-0.4267,-0.4271,-0.4266,-0.4102,-0.4088,-0.3897,-0.3862,-0.4271,-0.4271,-0.4271,-0.3941,0,-0.3706,-0.3873,-0.3955,-0.4075,-0.4136,-0.4183,-0.4262,-0.4314,-0.432,-0.4313,-0.4324,-0.4325,-0.4383,-0.4343,-0.4365,-0.429,-0.4247,-0.435,-0.407,-0.406,-0.3864,-0.3848,-0.3712,-0.3399,-0.3927,-0.3925,-0.3923,0,-0.3795,-0.3882,-0.4012,-0.4088,-0.4116,-0.4195,-0.4211,-0.4288,-0.4309,-0.4297,-0.4309,-0.4294,-0.431,-0.4331,-0.4249,-0.4299,-0.4216,-0.4156,-0.4142,-0.3935,-0.3848,-0.3435,-0.3353,-0.335,-0.3902,-0.3903,-0.3905,0,-0.3706,-0.3887,-0.3956,-0.4008,-0.4138,-0.4159,-0.4211,-0.4255,-0.425,-0.426,-0.4211,-0.4239,-0.4179,-0.4159,-0.4075,-0.4145,-0.391,-0.3977,-0.3713,-0.3693,-0.351,-0.3475,-0.3378,-0.391,-0.391,-0.3911,-0.3912,0,-0.3717,-0.3761,-0.3907,-0.394,-0.3961,-0.4077,-0.4066,-0.4113,-0.4129,-0.4058,-0.4172,-0.4077,-0.4141,-0.4025,-0.3996,-0.3762,-0.3835,-0.3693,-0.361,-0.3525,-0.3497,-0.3433,-0.3495,-0.3899,-0.3902,-0.3904,-0.3906,0,-0.36,-0.3717,-0.377,-0.3892,-0.3914,-0.3916,-0.3978,-0.3939,-0.4001,-0.3903,-0.3896,-0.3909,-0.3756,-0.3745,-0.3617,-0.3582,-0.3347,-0.3329,-0.3169,-0.3076,-0.287,-0.2941,-0.2717,-0.2642,-0.2986,-0.298,-0.2974,0,-0.3555,-0.358,-0.3682,-0.3672,-0.3722,-0.3752,-0.3733,-0.3839,-0.3782,-0.3749,-0.3645,-0.3543,-0.3388,-0.3135,-0.3051,-0.2879,-0.3006,-0.2677,-0.2846,-0.2804,-0.2825,-0.2904,-0.2867,-0.2592,-0.2584,-0.2577,-0.2572,0,-0.3414,-0.3447,-0.3473,-0.3472,-0.3462,-0.3458,-0.3447,-0.3397,-0.344,-0.3379,-0.3198,-0.3094,-0.2878,-0.2652,-0.2489,-0.2413,-0.2624,-0.2531,-0.2564,-0.2561,-0.2567,-0.2469,-0.2804,-0.2513,-0.2519,-0.2523,-0.2526,-0.2529,-0.3237,-0.3223,-0.3227,-0.3202,-0.3189,-0.3096,-0.2997,-0.2976,-0.286,-0.2686,-0.2727,-0.2525,-0.2428,-0.2178,-0.2079,-0.1946,-0.2102,-0.1978,-0.2065,-0.2145,-0.2108,-0.2253,-0.1849,-0.1851,-0.1852,-0.1854,-0.1855,0,-0.2982,-0.2975,-0.2944,-0.288,-0.2755,-0.284,-0.2719,-0.2569,-0.2341,-0.2278,-0.2118,-0.1992,-0.1797,-0.1777,-0.1653,-0.1565,-0.1601,-0.1567,-0.172,-0.1706,-0.1864,-0.1888,-0.1383,-0.1383,-0.1383,-0.1383,-0.1383,-0.1383,-0.2826,-0.2697,-0.27,-0.2425,-0.2382,-0.2131,-0.2012,-0.1858,-0.1762,-0.1536,-0.1475,-0.1483,-0.155,-0.1661,-0.1551,-0.1467,-0.151,-0.1403,-0.1483,-0.17,-0.175,-0.1798,-0.1837,-0.133,-0.133,-0.1273,-0.1273,-0.1273]},{"header":{"parameterUnit":"m.s-1","parameterCategory":2,"la1":30.2991,"la2":30.254,"lo1":-89.0895,"lo2":-89.0444,"dy":0.0017,"dx":0.0017,"nx":28,"ny":28,"refTime":"2024-05-28T21:00:00:Z","depth":"0","parameterNumber":3,"parameterNumberName":"V-component_of_CURRENTS"},"data":[0,0,0,0,0,0,0,0,0,0,0,0,0,0,0,0,0,0,0,0,0,0,0,0,0,0,0,0,0,0,0,0,0,0,0,0,0,0,0,0,0,0,0,0,0,0,0,0,0,0,0,0,0,0,0,0,0,0,-0.0519,-0.0519,0,-0.0479,-0.0478,-0.0477,-0.0426,-0.0426,-0.0426,-0.0425,-0.0264,-0.026,-0.0256,0,0,0,0,0,0,0,0,0,0,0,0,0,-0.0456,-0.0458,-0.0519,-0.0519,-0.0519,-0.0479,-0.0478,-0.0477,-0.0426,-0.0426,-0.0426,-0.0425,-0.0265,-0.0261,-0.0256,0,0,0,0,0,0,0,0,0,0,0,0,0,-0.0452,-0.0458,-0.0519,-0.0492,-0.049,-0.0479,-0.0478,-0.0477,-0.0427,-0.0426,-0.0425,-0.0425,-0.0267,-0.0261,-0.0255,-0.023,0,0,-0.0237,-0.0234,0,0,0,0,0,0,0,0,-0.0452,-0.0454,-0.0496,-0.0494,-0.0491,-0.0461,-0.0397,-0.039,-0.0427,-0.0445,-0.0425,-0.0425,-0.0322,-0.0312,-0.03,-0.0222,-0.0215,-0.0237,-0.0233,-0.023,-0.0229,0,0,0,0,0,0,0,-0.0453,-0.0455,-0.0498,-0.0496,-0.0493,-0.045,-0.0449,-0.0395,-0.0381,-0.0444,-0.0441,-0.0445,-0.0319,-0.0306,-0.0296,-0.0213,-0.0237,-0.0231,-0.0228,-0.0225,-0.008,-0.008,0,0,0,0,0,0,-0.0474,-0.0456,-0.0499,-0.0497,-0.0476,-0.0453,-0.0451,-0.0468,-0.0384,-0.0374,-0.0445,-0.0443,-0.0317,-0.0303,-0.029,-0.0235,-0.023,-0.0225,-0.0221,-0.0081,-0.008,-0.008,0,0,0,0,0,0,-0.0473,-0.0479,-0.0501,-0.0478,-0.0479,-0.0456,-0.0473,-0.0467,-0.0454,-0.0388,-0.0374,-0.044,-0.0316,-0.0298,-0.0237,-0.0229,-0.0222,-0.0217,-0.0081,-0.0081,-0.008,-0.0136,0,0,0,0,0,0,-0.0471,-0.0479,-0.0491,-0.0481,-0.0481,-0.0498,-0.0474,-0.0467,-0.046,-0.0456,-0.0378,-0.0363,-0.0314,-0.0246,-0.0231,-0.022,-0.0212,-0.0081,-0.0081,-0.008,-0.0135,-0.0138,-0.0141,0,0,0,0,0,-0.0469,-0.0494,-0.0493,-0.0497,-0.0502,-0.0499,-0.0495,-0.0472,-0.046,-0.0457,-0.04,-0.0365,-0.0232,-0.0241,-0.0223,-0.0211,-0.0082,-0.0081,-0.008,-0.0134,-0.0137,-0.014,0,0,0,0,0,0,-0.0478,-0.0492,-0.0489,-0.0519,-0.0511,-0.0492,-0.0493,-0.0478,-0.0433,-0.0424,-0.0357,-0.0338,-0.0282,-0.024,-0.0252,-0.0168,-0.0152,-0.0148,-0.0199,-0.0202,-0.0205,-0.0233,-0.0207,0,0,0,0,0,-0.0488,-0.0509,-0.0508,-0.0532,-0.0532,-0.0512,-0.0508,-0.0494,-0.046,-0.0441,-0.0389,-0.0327,-0.0266,-0.0231,-0.0175,-0.0127,-0.0092,-0.0109,-0.0112,-0.0114,-0.0126,-0.0086,-0.0086,-0.0078,-0.0078,-0.0078,0,0,-0.0502,-0.0511,-0.0524,-0.0535,-0.0527,-0.0535,-0.0507,-0.0507,-0.0498,-0.0427,-0.0393,-0.0335,-0.0256,-0.0203,-0.0174,-0.0165,-0.0091,-0.0114,-0.0116,-0.0126,-0.0085,-0.0086,-0.0087,-0.0077,-0.0077,-0.0077,0,0,-0.0548,-0.0545,-0.0582,-0.0575,-0.0574,-0.0553,-0.0557,-0.0538,-0.0511,-0.0475,-0.0418,-0.0358,-0.0277,-0.0217,-0.0175,-0.016,-0.011,-0.0142,-0.0173,-0.0134,-0.0135,-0.0135,-0.0067,-0.0061,-0.0141,-0.0141,-0.0141,0,-0.0564,-0.0612,-0.0588,-0.0614,-0.0614,-0.0567,-0.0593,-0.0556,-0.0516,-0.0493,-0.0472,-0.0354,-0.0283,-0.0212,-0.0202,-0.0166,-0.0133,-0.0167,-0.014,-0.0139,-0.0139,-0.0069,-0.0062,-0.0144,-0.0143,-0.0143,-0.0143,0,-0.0642,-0.0666,-0.0683,-0.0698,-0.0684,-0.0697,-0.065,-0.0623,-0.0583,-0.0548,-0.048,-0.0389,-0.0323,-0.0284,-0.0231,-0.0187,-0.0159,-0.0152,-0.0137,-0.0144,-0.0069,-0.006,-0.0147,-0.0146,-0.0146,-0.0145,0,0,-0.0718,-0.0738,-0.0743,-0.0762,-0.0729,-0.0733,-0.0696,-0.0661,-0.0644,-0.0579,-0.0554,-0.0437,-0.0396,-0.0347,-0.0274,-0.0229,-0.0173,-0.0195,-0.0191,-0.0137,-0.007,0.0003,0.0021,-0.0171,-0.017,-0.017,-0.0011,0,-0.079,-0.0865,-0.0835,-0.0875,-0.0906,-0.083,-0.0802,-0.0749,-0.0686,-0.0643,-0.0538,-0.0483,-0.0415,-0.0383,-0.0327,-0.0213,-0.0158,-0.0216,-0.0064,-0.0058,-0.0002,0.003,0.0096,0.0246,-0.0002,-0.0001,0.0001,0,-0.0886,-0.0918,-0.0985,-0.0975,-0.0977,-0.0975,-0.092,-0.0889,-0.079,-0.0739,-0.0664,-0.0582,-0.0477,-0.0437,-0.0259,-0.0303,-0.0197,-0.0111,-0.0103,-0.0015,0.003,0.0209,0.0271,0.0456,0.0014,0.0013,0.0012,0,-0.0983,-0.1017,-0.1074,-0.1076,-0.1054,-0.1048,-0.1019,-0.0932,-0.0899,-0.0805,-0.077,-0.0646,-0.0568,-0.0445,-0.024,-0.0259,-0.0048,-0.005,0.0121,0.0129,0.0226,0.0241,0.0473,0.0057,0.0057,0.0056,0.0056,0,-0.1084,-0.1126,-0.113,-0.1164,-0.1201,-0.1145,-0.1149,-0.1092,-0.1011,-0.096,-0.0838,-0.076,-0.0572,-0.0414,-0.0261,-0.0022,-0.0056,0.0127,0.0172,0.0213,0.0224,0.0421,0.0477,0.0062,0.0061,0.006,0.0059,0,-0.1193,-0.1199,-0.1268,-0.1265,-0.126,-0.1292,-0.1241,-0.1224,-0.114,-0.1069,-0.104,-0.0841,-0.0613,-0.0403,-0.0159,-0.0025,0.0305,0.0264,0.0319,0.0368,0.0673,0.0722,0.0975,0.1093,0.0466,0.0469,0.0471,0,-0.1263,-0.1315,-0.1354,-0.1382,-0.1385,-0.1402,-0.1387,-0.1306,-0.1259,-0.1094,-0.1048,-0.0826,-0.0617,-0.0226,0.005,0.0344,0.0462,0.0556,0.0529,0.0718,0.0805,0.0831,0.0913,0.0654,0.0658,0.066,0.0663,0,-0.1377,-0.1392,-0.1437,-0.1491,-0.1506,-0.1509,-0.1472,-0.1448,-0.1311,-0.1221,-0.102,-0.0851,-0.0441,-0.0052,0.032,0.0486,0.0705,0.0625,0.0806,0.0963,0.1022,0.1148,0.0539,0.0689,0.0686,0.0685,0.0683,0.0682,-0.1444,-0.1505,-0.1542,-0.1583,-0.1598,-0.1565,-0.1527,-0.1441,-0.1341,-0.1118,-0.099,-0.0673,-0.0145,0.0406,0.0606,0.1031,0.0953,0.1143,0.1188,0.1199,0.1309,0.077,0.097,0.0969,0.0969,0.0968,0.0967,0,-0.1508,-0.155,-0.1608,-0.1635,-0.1627,-0.161,-0.1525,-0.1425,-0.1257,-0.1043,-0.082,-0.0222,0.0298,0.0762,0.134,0.1574,0.1618,0.1679,0.1737,0.1794,0.1322,0.1327,0.1632,0.1632,0.1632,0.1632,0.1631,0.1631,-0.154,-0.1599,-0.1616,-0.1616,-0.1616,-0.1526,-0.145,-0.1294,-0.1102,-0.0698,-0.0344,-0.0071,0.0559,0.1473,0.2011,0.206,0.2269,0.2249,0.2347,0.2021,0.1974,0.1929,0.1951,0.2382,0.2383,0.2822,0.2826,0.2829]}],[{"header":{"parameterUnit":"m.s-1","parameterCategory":2,"la1":30.2991,"la2":30.254,"lo1":-89.0895,"lo2":-89.0444,"dy":0.0017,"dx":0.0017,"nx":28,"ny":28,"refTime":"2024-05-28T21:00:00:Z","depth":"2","parameterNumber":2,"parameterNumberName":"U-component_of_CURRENTS"},"data":[0,0,0,0,0,0,0,0,0,0,0,0,0,0,0,0,0,0,0,0,0,0,0,0,0,0,0,0,0,0,0,0,0,0,0,0,0,0,0,0,0,0,0,0,0,0,0,0,0,0,0,0,0,0,0,0,0,0,-0.2314,-0.2316,0,-0.2403,-0.2403,-0.2404,-0.2337,-0.2335,-0.2333,-0.2331,-0.2283,-0.2283,-0.2284,0,0,0,0,0,0,0,0,0,0,0,0,0,-0.2177,-0.2179,-0.2314,-0.2316,-0.2318,-0.2403,-0.2403,-0.2404,-0.2337,-0.2335,-0.2332,-0.233,-0.2283,-0.2283,-0.2284,0,0,0,0,0,0,0,0,0,0,0,0,0,-0.224,-0.2179,-0.2314,-0.2302,-0.2302,-0.2403,-0.2403,-0.2404,-0.2338,-0.2335,-0.2332,-0.2329,-0.2282,-0.2283,-0.2284,-0.2352,0,0,-0.2287,-0.2288,0,0,0,0,0,0,0,0,-0.2236,-0.2243,-0.2302,-0.2303,-0.2304,-0.2364,-0.2338,-0.2383,-0.2339,-0.2314,-0.2331,-0.2327,-0.2306,-0.2305,-0.2317,-0.235,-0.2348,-0.2287,-0.2288,-0.2288,-0.2289,0,0,0,0,0,0,0,-0.2232,-0.224,-0.234,-0.2304,-0.2306,-0.2324,-0.2328,-0.2347,-0.2316,-0.2316,-0.2314,-0.234,-0.2303,-0.2316,-0.2315,-0.2347,-0.2287,-0.2288,-0.2289,-0.2289,-0.2414,-0.2417,0,0,0,0,0,0,-0.2239,-0.2236,-0.2337,-0.2343,-0.2272,-0.2329,-0.2333,-0.234,-0.2319,-0.2317,-0.2342,-0.2337,-0.2316,-0.2314,-0.2313,-0.2372,-0.2288,-0.2289,-0.229,-0.2412,-0.2415,-0.2418,0,0,0,0,0,0,-0.2235,-0.2246,-0.2334,-0.23,-0.2313,-0.2335,-0.2344,-0.2344,-0.2354,-0.2342,-0.2334,-0.2353,-0.2314,-0.2312,-0.2352,-0.237,-0.229,-0.229,-0.2408,-0.2413,-0.2416,-0.2504,0,0,0,0,0,0,-0.223,-0.2243,-0.2246,-0.23,-0.2316,-0.2399,-0.2348,-0.2348,-0.2379,-0.2372,-0.235,-0.2342,-0.2311,-0.2351,-0.2353,-0.237,-0.2291,-0.2405,-0.241,-0.2415,-0.2497,-0.251,-0.2521,0,0,0,0,0,-0.2225,-0.2259,-0.2245,-0.2258,-0.2319,-0.2402,-0.2411,-0.241,-0.2383,-0.2403,-0.2399,-0.2342,-0.2383,-0.2356,-0.2357,-0.2374,-0.2402,-0.2409,-0.2415,-0.2492,-0.2508,-0.2521,0,0,0,0,0,0,-0.2207,-0.2258,-0.2243,-0.2288,-0.2339,-0.2393,-0.2427,-0.2426,-0.2442,-0.2428,-0.2395,-0.239,-0.2433,-0.2408,-0.2377,-0.2428,-0.2378,-0.2385,-0.2436,-0.2451,-0.2462,-0.2463,-0.2292,0,0,0,0,0,-0.2206,-0.2237,-0.2289,-0.2328,-0.2357,-0.239,-0.2422,-0.2426,-0.2457,-0.2459,-0.2457,-0.2452,-0.2466,-0.2459,-0.2477,-0.2512,-0.2468,-0.2521,-0.2533,-0.2543,-0.2548,-0.2569,-0.2582,-0.2438,-0.2438,-0.2438,0,0,-0.2204,-0.2248,-0.2257,-0.2327,-0.2363,-0.2424,-0.2399,-0.2463,-0.2497,-0.2455,-0.2504,-0.251,-0.2494,-0.2534,-0.2546,-0.2505,-0.2548,-0.2551,-0.2559,-0.2558,-0.2576,-0.259,-0.2602,-0.2442,-0.2442,-0.2441,0,0,-0.2258,-0.2264,-0.2312,-0.2365,-0.2439,-0.2461,-0.2483,-0.2546,-0.2548,-0.2621,-0.2588,-0.2618,-0.2648,-0.2633,-0.2627,-0.2723,-0.2629,-0.2714,-0.2752,-0.2773,-0.2784,-0.2794,-0.2688,-0.2688,-0.2698,-0.2698,-0.2698,0,-0.2254,-0.2312,-0.2343,-0.2422,-0.2459,-0.248,-0.2537,-0.2571,-0.2636,-0.2655,-0.2647,-0.2711,-0.2698,-0.2721,-0.2745,-0.2747,-0.2702,-0.2692,-0.2786,-0.2795,-0.2804,-0.2694,-0.2692,-0.2703,-0.2703,-0.2702,-0.2702,0,-0.2348,-0.2392,-0.2441,-0.2518,-0.2565,-0.2627,-0.2673,-0.272,-0.2735,-0.2765,-0.2823,-0.2828,-0.2853,-0.2852,-0.2826,-0.2867,-0.2791,-0.2814,-0.2742,-0.2823,-0.2701,-0.2698,-0.271,-0.2708,-0.2707,-0.2706,0,0,-0.2335,-0.2468,-0.2483,-0.2512,-0.2609,-0.2653,-0.273,-0.2791,-0.2824,-0.2893,-0.2926,-0.2977,-0.2974,-0.2968,-0.2932,-0.2937,-0.2935,-0.2894,-0.2893,-0.2773,-0.2885,-0.2777,-0.2761,-0.2978,-0.298,-0.2981,-0.2749,0,-0.2384,-0.2511,-0.2567,-0.2655,-0.2702,-0.275,-0.2811,-0.2872,-0.2914,-0.2961,-0.2976,-0.3009,-0.3012,-0.3005,-0.3028,-0.2958,-0.2943,-0.2989,-0.2839,-0.2831,-0.2716,-0.2762,-0.2587,-0.2365,-0.2746,-0.2745,-0.2744,0,-0.2429,-0.2511,-0.2603,-0.2685,-0.2709,-0.2772,-0.2838,-0.2893,-0.2972,-0.301,-0.3065,-0.3069,-0.3068,-0.3075,-0.3018,-0.3043,-0.2983,-0.2931,-0.2922,-0.2796,-0.2722,-0.2363,-0.2344,-0.2738,-0.2739,-0.2739,-0.274,0,-0.2365,-0.2508,-0.2562,-0.2604,-0.2727,-0.2772,-0.2823,-0.2914,-0.2939,-0.3024,-0.3033,-0.3084,-0.3044,-0.3049,-0.2956,-0.299,-0.2859,-0.2891,-0.2726,-0.271,-0.2518,-0.2486,-0.2884,-0.2885,-0.2885,-0.2886,-0.2887,0,-0.2361,-0.2411,-0.2544,-0.2587,-0.2633,-0.2734,-0.2782,-0.2856,-0.2936,-0.293,-0.303,-0.2998,-0.3049,-0.2979,-0.2939,-0.2785,-0.2849,-0.2723,-0.2673,-0.2536,-0.2509,-0.2824,-0.282,-0.2877,-0.2879,-0.2881,-0.2882,0,-0.2275,-0.2371,-0.2439,-0.2577,-0.2602,-0.2634,-0.2729,-0.2761,-0.2855,-0.2839,-0.2854,-0.2905,-0.2819,-0.2808,-0.2742,-0.2702,-0.261,-0.2547,-0.2317,-0.2249,-0.2433,-0.2437,-0.2332,-0.2327,-0.2323,-0.2319,-0.2316,0,-0.2238,-0.2268,-0.239,-0.2404,-0.2468,-0.2531,-0.2555,-0.2693,-0.2708,-0.2742,-0.2695,-0.2663,-0.2581,-0.2433,-0.2383,-0.2268,-0.242,-0.2059,-0.2147,-0.2429,-0.2391,-0.2401,-0.2411,-0.1869,-0.1863,-0.1858,-0.1853,0,-0.2148,-0.2196,-0.2243,-0.2272,-0.2306,-0.2334,-0.2382,-0.2394,-0.2497,-0.2486,-0.2423,-0.2373,-0.2249,-0.2079,-0.198,-0.1915,-0.2082,-0.1948,-0.2307,-0.207,-0.1985,-0.1951,-0.1976,-0.1806,-0.1811,-0.1815,-0.1817,-0.1819,-0.2042,-0.2037,-0.2079,-0.2088,-0.2117,-0.2103,-0.2069,-0.2116,-0.2093,-0.2035,-0.21,-0.1965,-0.1966,-0.172,-0.1614,-0.156,-0.1719,-0.1688,-0.1708,-0.1732,-0.1755,-0.1672,-0.1428,-0.1431,-0.1433,-0.1435,-0.1436,0,-0.1875,-0.1879,-0.188,-0.1875,-0.1831,-0.1915,-0.1902,-0.1836,-0.1738,-0.1735,-0.1669,-0.1486,-0.1364,-0.138,-0.1207,-0.1179,-0.1202,-0.1155,-0.1202,-0.1247,-0.1288,-0.1294,-0.0841,-0.084,-0.0838,-0.0837,0,0,-0.1776,-0.1718,-0.1721,-0.158,-0.1577,-0.1463,-0.1427,-0.1355,-0.1322,-0.1204,-0.1158,-0.1254,-0.1311,-0.1075,-0.1024,-0.0901,-0.1065,-0.0851,-0.1325,-0.1423,-0.1462,-0.1586,-0.1644,0,0,0,0,0]},{"header":{"parameterUnit":"m.s-1","parameterCategory":2,"la1":30.2991,"la2":30.254,"lo1":-89.0895,"lo2":-89.0444,"dy":0.0017,"dx":0.0017,"nx":28,"ny":28,"refTime":"2024-05-28T21:00:00:Z","depth":"2","parameterNumber":3,"parameterNumberName":"V-component_of_CURRENTS"},"data":[0,0,0,0,0,0,0,0,0,0,0,0,0,0,0,0,0,0,0,0,0,0,0,0,0,0,0,0,0,0,0,0,0,0,0,0,0,0,0,0,0,0,0,0,0,0,0,0,0,0,0,0,0,0,0,0,0,0,-0.0166,-0.0166,0,-0.0154,-0.0154,-0.0154,-0.012,-0.012,-0.0119,-0.0119,0.0026,0.0029,0.0032,0,0,0,0,0,0,0,0,0,0,0,0,0,-0.0137,-0.0137,-0.0166,-0.0166,-0.0166,-0.0154,-0.0154,-0.0153,-0.012,-0.012,-0.0119,-0.0118,0.0025,0.0029,0.0033,0,0,0,0,0,0,0,0,0,0,0,0,0,-0.0137,-0.0138,-0.0166,-0.015,-0.0148,-0.0154,-0.0154,-0.0153,-0.012,-0.012,-0.0119,-0.0118,0.0023,0.0028,0.0033,0.005,0,0,0.0049,0.0051,0,0,0,0,0,0,0,0,-0.0137,-0.0138,-0.0152,-0.0151,-0.015,-0.014,-0.0091,-0.008,-0.0121,-0.0128,-0.0119,-0.0118,-0.002,-0.0011,-0.0009,0.0057,0.0063,0.0049,0.0052,0.0054,0.0056,0,0,0,0,0,0,0,-0.0137,-0.0138,-0.0158,-0.0152,-0.0151,-0.0136,-0.0135,-0.0089,-0.0074,-0.0128,-0.0126,-0.0129,-0.0018,-0.0014,-0.0005,0.0065,0.0049,0.0053,0.0057,0.0059,0.0202,0.0202,0,0,0,0,0,0,-0.0146,-0.0139,-0.0159,-0.0158,-0.0144,-0.0137,-0.0136,-0.0142,-0.0077,-0.0068,-0.013,-0.0127,-0.0023,-0.0011,0.0001,0.0047,0.0054,0.0059,0.0062,0.0201,0.0202,0.0203,0,0,0,0,0,0,-0.0146,-0.0148,-0.0159,-0.015,-0.0151,-0.0139,-0.0145,-0.0142,-0.014,-0.0081,-0.0068,-0.0132,-0.0022,-0.0006,0.0044,0.0053,0.0061,0.0066,0.02,0.0201,0.0202,0.0126,0,0,0,0,0,0,-0.0145,-0.0148,-0.0152,-0.0151,-0.0152,-0.0176,-0.0146,-0.0142,-0.0145,-0.0142,-0.0078,-0.0064,-0.002,0.0036,0.0049,0.006,0.007,0.0199,0.0201,0.0202,0.0128,0.0125,0.0122,0,0,0,0,0,-0.0144,-0.0169,-0.0153,-0.0155,-0.0159,-0.0178,-0.0177,-0.0163,-0.0146,-0.0156,-0.0101,-0.0067,0.0055,0.004,0.0055,0.0068,0.0198,0.02,0.0202,0.0129,0.0125,0.0122,0,0,0,0,0,0,-0.0165,-0.0168,-0.015,-0.0175,-0.0176,-0.0173,-0.0186,-0.0171,-0.0139,-0.0128,-0.0064,-0.0046,0.0004,0.0047,0.0029,0.0116,0.0135,0.014,0.0075,0.0072,0.0069,0.0044,0.0074,0,0,0,0,0,-0.017,-0.0184,-0.0182,-0.02,-0.0205,-0.0192,-0.0196,-0.0186,-0.0163,-0.015,-0.0105,-0.0041,0.0022,0.0053,0.0107,0.0148,0.0186,0.017,0.0167,0.0164,0.0156,0.0221,0.0222,0.0208,0.0208,0.0208,0,0,-0.018,-0.0186,-0.0191,-0.0204,-0.0204,-0.0222,-0.0193,-0.0209,-0.0205,-0.0135,-0.0113,-0.0054,0.0031,0.0079,0.0106,0.0115,0.0189,0.0166,0.0163,0.0156,0.0222,0.0224,0.0225,0.0209,0.0209,0.0209,0,0,-0.0233,-0.0218,-0.0254,-0.0259,-0.0267,-0.0251,-0.0258,-0.0254,-0.0231,-0.0206,-0.014,-0.0081,-0.0007,0.0059,0.0105,0.012,0.017,0.0142,0.0107,0.0169,0.017,0.0172,0.0215,0.022,0.0141,0.0141,0.0141,0,-0.0247,-0.0289,-0.0268,-0.0307,-0.031,-0.0268,-0.0301,-0.0273,-0.0248,-0.0221,-0.0208,-0.0079,-0.0014,0.0071,0.0077,0.0113,0.0146,0.0108,0.0163,0.0165,0.0168,0.0212,0.0219,0.0138,0.0138,0.0138,0.0139,0,-0.0333,-0.0355,-0.0381,-0.04,-0.0395,-0.0421,-0.0379,-0.0359,-0.032,-0.0286,-0.0211,-0.0124,-0.0048,-0.001,0.0038,0.01,0.0116,0.0147,0.0162,0.0164,0.0211,0.022,0.0133,0.0134,0.0135,0.0136,0,0,-0.0394,-0.0434,-0.0441,-0.0457,-0.0445,-0.0453,-0.0426,-0.0393,-0.0369,-0.0315,-0.0279,-0.0165,-0.0121,-0.0065,0.0011,0.0068,0.0117,0.0104,0.0109,0.0128,0.0238,0.0263,0.0276,0.0151,0.0153,0.0154,0.0259,0,-0.0469,-0.0557,-0.0541,-0.0585,-0.0619,-0.0552,-0.053,-0.0478,-0.0418,-0.0369,-0.0256,-0.0195,-0.0136,-0.0099,-0.0033,0.0085,0.0138,0.0084,0.0249,0.0253,0.0262,0.0287,0.0276,0.037,0.0268,0.0269,0.027,0,-0.0559,-0.0603,-0.0677,-0.0672,-0.0677,-0.0683,-0.0622,-0.0596,-0.0495,-0.0446,-0.0362,-0.0277,-0.0168,-0.0127,0.0054,0.0013,0.0111,0.0196,0.0203,0.0258,0.0296,0.0357,0.0391,0.0286,0.0285,0.0284,0.0283,0,-0.0626,-0.0682,-0.0739,-0.0747,-0.0743,-0.0739,-0.0715,-0.063,-0.0595,-0.0497,-0.046,-0.0325,-0.0249,-0.0115,0.0063,0.0056,0.0255,0.0274,0.0389,0.0392,0.0432,0.0435,0.0392,0.0392,0.0391,0.0391,0.0391,0,-0.0709,-0.0752,-0.0782,-0.0819,-0.0852,-0.0814,-0.0812,-0.0759,-0.0684,-0.0634,-0.0512,-0.0435,-0.0244,-0.0098,0.0046,0.0247,0.0247,0.0385,0.0426,0.0405,0.0405,0.0373,0.0369,0.0395,0.0394,0.0393,0.0393,0,-0.0776,-0.0804,-0.0873,-0.0896,-0.0895,-0.092,-0.0888,-0.0875,-0.0796,-0.0725,-0.0696,-0.0514,-0.0318,-0.0122,0.0114,0.0232,0.0416,0.0486,0.0437,0.0471,0.0509,0.05,0.0615,0.0617,0.0619,0.062,0.0621,0,-0.0822,-0.0873,-0.0934,-0.0965,-0.0983,-0.1003,-0.1002,-0.0942,-0.0909,-0.0755,-0.0716,-0.0522,-0.0347,-0.0008,0.0229,0.0479,0.0478,0.0598,0.0591,0.0506,0.0535,0.0524,0.0513,0.0614,0.0615,0.0616,0.0616,0,-0.0901,-0.0927,-0.0978,-0.1043,-0.1074,-0.1089,-0.1078,-0.1068,-0.0964,-0.0878,-0.0707,-0.056,-0.0229,0.0067,0.0368,0.0507,0.0553,0.0622,0.0574,0.0551,0.0512,0.0537,0.0526,0.0623,0.0623,0.0622,0.0622,0.0622,-0.0944,-0.0998,-0.1056,-0.1103,-0.1137,-0.1139,-0.113,-0.1079,-0.1004,-0.0824,-0.0701,-0.0441,-0.0183,0.0274,0.048,0.0655,0.0651,0.0702,0.0697,0.0692,0.0666,0.0631,0.0759,0.0759,0.0759,0.0759,0.0759,0,-0.0979,-0.1031,-0.1094,-0.1145,-0.1165,-0.117,-0.1139,-0.1082,-0.0966,-0.0789,-0.0595,-0.0277,0.0045,0.0295,0.0595,0.0766,0.074,0.0777,0.0722,0.0715,0.0709,0.068,0.0779,0.0779,0.078,0.078,0,0,-0.0999,-0.1068,-0.1097,-0.1135,-0.116,-0.1146,-0.1117,-0.1007,-0.0864,-0.0658,-0.0466,-0.0224,0.0081,0.0297,0.0511,0.0661,0.0635,0.0661,0.0631,0.0536,0.0527,0.0657,0.0605,0,0,0,0,0]}],[{"header":{"parameterUnit":"m.s-1","parameterCategory":2,"la1":30.2991,"la2":30.254,"lo1":-89.0895,"lo2":-89.0444,"dy":0.0017,"dx":0.0017,"nx":28,"ny":28,"refTime":"2024-05-28T21:00:00:Z","depth":"4","parameterNumber":2,"parameterNumberName":"U-component_of_CURRENTS"},"data":[0,0,0,0,0,0,0,0,0,0,0,0,0,0,0,0,0,0,0,0,0,0,0,0,0,0,0,0,0,0,0,0,0,0,0,0,0,0,0,0,0,0,0,0,0,0,0,0,0,0,0,0,0,0,0,0,0,0,-0.1334,-0.1334,0,-0.1395,-0.1396,-0.1397,-0.144,-0.144,-0.144,-0.1441,-0.1432,-0.1432,-0.1431,0,0,0,0,0,0,0,0,0,0,0,0,0,-0.1243,-0.1245,-0.1333,-0.1334,-0.1335,-0.1395,-0.1396,-0.1397,-0.144,-0.144,-0.144,-0.1441,-0.1433,-0.1432,-0.1431,0,0,0,0,0,0,0,0,0,0,0,0,0,-0.1291,-0.1245,-0.1333,-0.1364,-0.1367,-0.1395,-0.1396,-0.1397,-0.144,-0.144,-0.1441,-0.1441,-0.1433,-0.1432,-0.1431,-0.1416,0,0,-0.1429,-0.1428,0,0,0,0,0,0,0,0,-0.1288,-0.1294,-0.1359,-0.1362,-0.1366,-0.1411,-0.1361,-0.14,-0.1439,-0.1412,-0.1441,-0.1441,-0.1418,-0.1419,-0.143,-0.1415,-0.1415,-0.1429,-0.1428,-0.1428,-0.1428,0,0,0,0,0,0,0,-0.1285,-0.1292,-0.1358,-0.1359,-0.1364,-0.1371,-0.1379,-0.1369,-0.141,-0.1414,-0.1418,-0.1425,-0.142,-0.1431,-0.143,-0.1415,-0.1429,-0.1428,-0.1427,-0.1427,-0.1452,-0.1453,0,0,0,0,0,0,-0.1278,-0.1289,-0.1356,-0.136,-0.1328,-0.1373,-0.1381,-0.1395,-0.1412,-0.1415,-0.1424,-0.1426,-0.1432,-0.1431,-0.143,-0.1491,-0.1428,-0.1427,-0.1427,-0.1451,-0.1453,-0.1454,0,0,0,0,0,0,-0.1276,-0.1284,-0.1353,-0.1325,-0.1335,-0.1374,-0.139,-0.1396,-0.1429,-0.142,-0.1422,-0.1452,-0.1432,-0.1431,-0.1442,-0.1488,-0.1427,-0.1426,-0.145,-0.1452,-0.1453,-0.1563,0,0,0,0,0,0,-0.1273,-0.1283,-0.13,-0.1325,-0.1336,-0.1393,-0.1389,-0.1397,-0.1431,-0.1435,-0.1444,-0.1443,-0.1433,-0.1443,-0.1441,-0.1486,-0.1425,-0.1448,-0.1451,-0.1453,-0.1558,-0.1568,-0.1577,0,0,0,0,0,-0.127,-0.129,-0.13,-0.1309,-0.1355,-0.1394,-0.1401,-0.1429,-0.1432,-0.1458,-0.1457,-0.1444,-0.1456,-0.1443,-0.144,-0.1486,-0.1447,-0.145,-0.1452,-0.1554,-0.1566,-0.1577,0,0,0,0,0,0,-0.1265,-0.1297,-0.1309,-0.1339,-0.1374,-0.1402,-0.1427,-0.144,-0.1462,-0.1467,-0.1452,-0.1452,-0.1481,-0.1459,-0.1446,-0.1498,-0.1451,-0.1453,-0.1529,-0.1541,-0.155,-0.155,-0.1425,0,0,0,0,0,-0.1269,-0.129,-0.1325,-0.1352,-0.1372,-0.1402,-0.1423,-0.1444,-0.1462,-0.1474,-0.1485,-0.1485,-0.1486,-0.1494,-0.1492,-0.1515,-0.1499,-0.1542,-0.1552,-0.156,-0.1557,-0.1579,-0.1591,-0.1462,-0.1462,-0.1462,0,0,-0.1273,-0.1294,-0.1307,-0.1352,-0.138,-0.1416,-0.1417,-0.1461,-0.1488,-0.1466,-0.1513,-0.1519,-0.1497,-0.1532,-0.1543,-0.1523,-0.159,-0.1563,-0.1571,-0.1563,-0.1583,-0.1596,-0.1607,-0.1464,-0.1464,-0.1464,0,0,-0.1287,-0.1315,-0.1338,-0.1372,-0.1419,-0.1439,-0.1456,-0.1505,-0.1529,-0.1564,-0.156,-0.1596,-0.1595,-0.1612,-0.1607,-0.1663,-0.1638,-0.1664,-0.172,-0.1743,-0.1754,-0.1763,-0.1771,-0.1781,-0.1673,-0.1673,-0.1674,0,-0.129,-0.1325,-0.1353,-0.1388,-0.1419,-0.1451,-0.149,-0.1516,-0.1565,-0.1595,-0.1589,-0.1638,-0.1634,-0.1674,-0.17,-0.1689,-0.1685,-0.1683,-0.1757,-0.1766,-0.1774,-0.178,-0.1789,-0.1679,-0.1678,-0.1678,-0.1677,0,-0.132,-0.1357,-0.1378,-0.1428,-0.1468,-0.1508,-0.1549,-0.1598,-0.1627,-0.1659,-0.1722,-0.1729,-0.1761,-0.1775,-0.1751,-0.1815,-0.1789,-0.1767,-0.1733,-0.1794,-0.1796,-0.1803,-0.1687,-0.1685,-0.1683,-0.1682,0,0,-0.1297,-0.1379,-0.139,-0.1421,-0.1494,-0.1525,-0.1586,-0.1652,-0.1701,-0.1753,-0.181,-0.1845,-0.1873,-0.1869,-0.187,-0.1894,-0.1957,-0.1859,-0.1857,-0.1875,-0.2,-0.1834,-0.1825,-0.1951,-0.1953,-0.1954,-0.1983,0,-0.1312,-0.1376,-0.1419,-0.1484,-0.1521,-0.1582,-0.1639,-0.1706,-0.1759,-0.1826,-0.1857,-0.1907,-0.1898,-0.1929,-0.1956,-0.1951,-0.1979,-0.195,-0.1929,-0.1928,-0.178,-0.1829,-0.1959,-0.1989,-0.199,-0.1991,-0.1992,0,-0.1314,-0.1364,-0.1434,-0.1518,-0.1544,-0.1595,-0.1701,-0.1753,-0.1851,-0.1897,-0.1967,-0.1986,-0.2044,-0.2013,-0.2058,-0.204,-0.2029,-0.2021,-0.2021,-0.1828,-0.1775,-0.1909,-0.2004,-0.2003,-0.2003,-0.2002,-0.2001,0,-0.1267,-0.136,-0.1417,-0.1449,-0.1561,-0.1616,-0.1677,-0.1789,-0.1837,-0.1948,-0.1992,-0.2066,-0.209,-0.2109,-0.2094,-0.2087,-0.2111,-0.2101,-0.1945,-0.1934,-0.2028,-0.2017,-0.2128,-0.2128,-0.2128,-0.2127,-0.2127,0,-0.124,-0.1287,-0.1407,-0.144,-0.1516,-0.1607,-0.1694,-0.1773,-0.188,-0.1929,-0.2023,-0.205,-0.2112,-0.2124,-0.2117,-0.204,-0.2137,-0.1954,-0.1929,-0.2073,-0.2067,-0.2034,-0.2022,-0.2129,-0.2128,-0.2128,-0.2128,0,-0.1173,-0.1252,-0.1321,-0.1454,-0.1493,-0.1551,-0.1673,-0.1726,-0.1853,-0.1914,-0.1946,-0.2044,-0.2058,-0.2089,-0.2107,-0.204,-0.2007,-0.1955,-0.2104,-0.2088,-0.1815,-0.1809,-0.1798,-0.1792,-0.1787,-0.1783,-0.178,0,-0.1138,-0.117,-0.1309,-0.1344,-0.1407,-0.1501,-0.1554,-0.1693,-0.1745,-0.1881,-0.1887,-0.1946,-0.1986,-0.1888,-0.194,-0.1917,-0.1885,-0.1868,-0.1844,-0.1803,-0.1782,-0.1783,-0.1784,-0.1773,-0.1771,-0.177,-0.1769,0,-0.1064,-0.113,-0.1188,-0.1261,-0.1322,-0.1384,-0.1473,-0.1503,-0.1648,-0.1767,-0.1777,-0.1777,-0.1773,-0.1778,-0.1759,-0.1744,-0.1885,-0.1818,-0.1828,-0.1805,-0.1772,-0.1756,-0.1762,-0.1752,-0.1755,-0.1756,-0.1757,0,-0.0999,-0.1015,-0.1088,-0.1146,-0.1215,-0.1245,-0.1314,-0.1367,-0.1433,-0.1603,-0.1592,-0.1659,-0.1744,-0.1686,-0.1676,-0.1638,-0.1615,-0.157,-0.1593,-0.1612,-0.1532,-0.1462,-0.1325,0,0,0,0,0,-0.0922,-0.0921,-0.0956,-0.1009,-0.1079,-0.1119,-0.1242,-0.1321,-0.1469,-0.1427,-0.1512,-0.1504,-0.1481,-0.1524,-0.1443,-0.1582,-0.1617,-0.1481,-0.1578,-0.166,-0.168,-0.16,0,0,0,0,0,0,-0.0859,-0.0886,-0.0907,-0.0886,-0.0898,-0.095,-0.1028,-0.1131,-0.1137,-0.1291,-0.1289,-0.139,-0.1394,-0.1485,-0.14,-0.141,-0.1437,-0.1533,-0.1528,-0.165,-0.1667,-0.1682,-0.1608,0,0,0,0,0]},{"header":{"parameterUnit":"m.s-1","parameterCategory":2,"la1":30.2991,"la2":30.254,"lo1":-89.0895,"lo2":-89.0444,"dy":0.0017,"dx":0.0017,"nx":28,"ny":28,"refTime":"2024-05-28T21:00:00:Z","depth":"4","parameterNumber":3,"parameterNumberName":"V-component_of_CURRENTS"},"data":[0,0,0,0,0,0,0,0,0,0,0,0,0,0,0,0,0,0,0,0,0,0,0,0,0,0,0,0,0,0,0,0,0,0,0,0,0,0,0,0,0,0,0,0,0,0,0,0,0,0,0,0,0,0,0,0,0,0,-0.0017,-0.0017,0,-0.002,-0.002,-0.002,-0.0002,-0.0001,-0.0001,-0.0,0.006,0.0061,0.0062,0,0,0,0,0,0,0,0,0,0,0,0,0,-0.0012,-0.0012,-0.0017,-0.0017,-0.0017,-0.002,-0.002,-0.002,-0.0002,-0.0001,-0.0001,-0.0,0.006,0.0061,0.0062,0,0,0,0,0,0,0,0,0,0,0,0,0,-0.0015,-0.0012,-0.0017,-0.0008,-0.0007,-0.002,-0.002,-0.002,-0.0002,-0.0001,-0.0001,0.0,0.0059,0.0061,0.0063,0.0057,0,0,0.0068,0.0068,0,0,0,0,0,0,0,0,-0.0015,-0.0015,-0.0009,-0.0008,-0.0008,-0.0009,0.0004,0.0009,-0.0002,-0.0004,-0.0,0.0001,0.0042,0.0045,0.0042,0.006,0.0062,0.0068,0.0069,0.007,0.007,0,0,0,0,0,0,0,-0.0015,-0.0015,-0.0018,-0.0009,-0.0008,-0.001,-0.0009,0.0005,0.0016,-0.0004,-0.0003,-0.0003,0.0043,0.004,0.0044,0.0063,0.0068,0.0069,0.007,0.0071,0.0106,0.0106,0,0,0,0,0,0,-0.0014,-0.0015,-0.0018,-0.0018,-0.0009,-0.001,-0.001,-0.001,0.0014,0.0018,-0.0004,-0.0002,0.0037,0.0042,0.0046,0.0052,0.007,0.0071,0.0072,0.0106,0.0106,0.0106,0,0,0,0,0,0,-0.0014,-0.0014,-0.0018,-0.0016,-0.0017,-0.0011,-0.0012,-0.001,-0.0013,0.0014,0.0019,-0.0007,0.0038,0.0044,0.0056,0.0055,0.0072,0.0073,0.0106,0.0106,0.0106,0.0058,0,0,0,0,0,0,-0.0014,-0.0014,-0.0015,-0.0016,-0.0017,-0.0039,-0.0012,-0.0011,-0.0014,-0.0012,0.0013,0.0019,0.0039,0.0054,0.0058,0.0057,0.0075,0.0106,0.0106,0.0106,0.006,0.0057,0.0054,0,0,0,0,0,-0.0013,-0.0031,-0.0015,-0.0015,-0.0018,-0.004,-0.0042,-0.0035,-0.0015,-0.003,-0.0003,0.0018,0.0057,0.0055,0.006,0.006,0.0106,0.0106,0.0106,0.0061,0.0057,0.0054,0,0,0,0,0,0,-0.0034,-0.003,-0.0013,-0.0027,-0.0034,-0.0037,-0.0052,-0.0039,-0.0031,-0.0022,0.0012,0.0019,0.0031,0.0051,0.0048,0.0071,0.0087,0.0088,0.0052,0.0048,0.0045,0.0028,0.0076,0,0,0,0,0,-0.0036,-0.0043,-0.0041,-0.0053,-0.0059,-0.0051,-0.0057,-0.0051,-0.0044,-0.004,-0.0023,0.0006,0.0033,0.0044,0.0062,0.007,0.0109,0.0076,0.0073,0.007,0.006,0.0133,0.0136,0.0106,0.0106,0.0106,0,0,-0.0044,-0.0044,-0.0047,-0.0057,-0.006,-0.0083,-0.0054,-0.0071,-0.0079,-0.0034,-0.0042,-0.001,0.0032,0.0042,0.005,0.0059,0.0097,0.007,0.0067,0.0059,0.0133,0.0136,0.0139,0.0105,0.0105,0.0105,0,0,-0.0086,-0.0069,-0.0096,-0.0107,-0.0116,-0.0109,-0.0115,-0.012,-0.0112,-0.0114,-0.0072,-0.004,-0.0022,0.0015,0.0039,0.003,0.0077,0.0036,0.0007,0.0078,0.0081,0.0084,0.013,0.0138,0.0036,0.0036,0.0036,0,-0.0096,-0.0125,-0.011,-0.0145,-0.0154,-0.0124,-0.0157,-0.0149,-0.0147,-0.0133,-0.0125,-0.0064,-0.0031,0.0011,0.0006,0.0023,0.0062,0.0017,0.0074,0.0078,0.0083,0.0129,0.0139,0.0034,0.0034,0.0034,0.0034,0,-0.0165,-0.0183,-0.0205,-0.0226,-0.0234,-0.0261,-0.0244,-0.0242,-0.0219,-0.0199,-0.0165,-0.0117,-0.0075,-0.0057,-0.0031,0.0016,0.0033,0.0061,0.0083,0.0083,0.0132,0.0142,0.003,0.0031,0.0032,0.0033,0,0,-0.0199,-0.0244,-0.025,-0.0269,-0.0277,-0.0292,-0.0295,-0.0286,-0.0271,-0.0251,-0.0227,-0.0177,-0.0137,-0.0108,-0.0058,-0.0004,0.0059,0.0031,0.0036,0.0073,0.02,0.0174,0.0184,0.0102,0.0103,0.0105,0.0219,0,-0.0256,-0.0332,-0.0332,-0.0384,-0.0416,-0.0384,-0.0387,-0.0364,-0.0327,-0.0298,-0.0223,-0.0187,-0.0157,-0.0129,-0.0069,0.003,0.0085,0.0024,0.0196,0.02,0.0177,0.0195,0.011,0.0227,0.0229,0.0231,0.0233,0,-0.0321,-0.0361,-0.0432,-0.0452,-0.0461,-0.0482,-0.0458,-0.0457,-0.0392,-0.0357,-0.0299,-0.0238,-0.0159,-0.0128,0.0031,-0.0009,0.0082,0.0157,0.0165,0.0163,0.0195,0.023,0.0252,0.0251,0.0249,0.0248,0.0247,0,-0.0356,-0.042,-0.0475,-0.049,-0.0514,-0.0526,-0.0526,-0.048,-0.0463,-0.0392,-0.0358,-0.0258,-0.0198,-0.0075,0.0064,0.0058,0.0243,0.0264,0.0327,0.0326,0.0335,0.0331,0.0381,0.0381,0.038,0.038,0.038,0,-0.0408,-0.045,-0.05,-0.0535,-0.0578,-0.0573,-0.0586,-0.0562,-0.0513,-0.0482,-0.0395,-0.0335,-0.018,-0.0058,0.0065,0.022,0.0252,0.032,0.0358,0.0311,0.0302,0.0343,0.0337,0.0384,0.0383,0.0383,0.0382,0,-0.0435,-0.0474,-0.0541,-0.0589,-0.0603,-0.0634,-0.0641,-0.0634,-0.0586,-0.0537,-0.0516,-0.0381,-0.0223,-0.0069,0.0142,0.0218,0.0373,0.0423,0.0344,0.0376,0.0406,0.0396,0.0501,0.0502,0.0502,0.0502,0.0502,0,-0.0456,-0.0498,-0.0582,-0.0618,-0.0647,-0.0684,-0.0697,-0.0675,-0.0656,-0.0556,-0.0526,-0.0379,-0.0274,0.0007,0.0156,0.0378,0.0407,0.0469,0.0443,0.0394,0.0421,0.041,0.0401,0.0502,0.0502,0.0502,0.0502,0,-0.0487,-0.0523,-0.0576,-0.0651,-0.0694,-0.0728,-0.0744,-0.0737,-0.0687,-0.0648,-0.0504,-0.0358,-0.0182,0.0014,0.0178,0.0339,0.0416,0.0471,0.0472,0.0448,0.0396,0.042,0.0411,0.0503,0.0503,0.0503,0.0502,0,-0.0499,-0.0543,-0.061,-0.0667,-0.0723,-0.0747,-0.076,-0.0718,-0.0692,-0.0582,-0.0534,-0.0335,-0.0223,-0.0004,0.0154,0.0295,0.0329,0.0361,0.0368,0.0369,0.0285,0.0197,0.0277,0,0,0,0,0,-0.0499,-0.0545,-0.0609,-0.0677,-0.0728,-0.075,-0.0769,-0.0766,-0.0727,-0.0627,-0.0575,-0.0402,-0.0152,-0.0039,0.0102,0.0135,0.0329,0.0299,0.0364,0.0505,0.0505,0.0425,0,0,0,0,0,0,-0.0502,-0.0567,-0.0606,-0.0661,-0.0697,-0.0741,-0.0754,-0.0733,-0.0667,-0.0607,-0.0466,-0.0384,-0.0139,-0.0222,0.0105,0.0146,0.02,0.042,0.0422,0.0505,0.0505,0.0505,0.0422,0,0,0,0,0]}]]